DW1762 Weather Reports


Display with metric or nautical units.
time (UTC)temp
F
wind
direction
speed
MPH
gust
MPH
rain 1hr
in
rain 24hr
in
rain mn
in
humidity
%
barometer
mb
20260505100802 59 195 0.0 3.0 0.07 0.07 0.07 91 1007.9
20260505100402 60 200 0.0 1.0 0.06 0.06 0.06 90 1007.8
20260505100002 60 0 0.0 0.0 0.04 0.04 0.04 89 1007.8
20260505095202 60 192 0.0 1.0 0.02 0.02 0.02 88 1007.9
20260505094802 60 198 0.0 1.0 0.01 0.01 0.01 86 1007.8
20260505094403 61 217 0.0 3.0 0.01 0.01 0.01 86 1007.7
20260505094002 60 217 0.0 3.0 0.00 0.00 0.00 86 1007.7
20260505093603 60 215 0.0 3.0 0.00 0.00 0.00 86 1007.8
20260505093202 60 240 0.0 1.0 0.00 0.00 0.00 86 1007.7
20260505092802 60 328 0.0 1.0 0.00 0.00 0.00 86 1007.6
20260505092402 60 0 0.0 0.0 0.00 0.00 0.00 86 1007.6
20260505092002 60 0 0.0 0.0 0.00 0.00 0.00 86 1007.5
20260505091602 60 0 0.0 0.0 0.00 0.00 0.00 85 1007.4
20260505091202 60 0 0.0 0.0 0.00 0.00 0.00 85 1007.1
20260505090402 60 52 0.0 1.0 0.00 0.00 0.00 83 1006.8
20260505090002 60 52 0.0 1.0 0.00 0.00 0.00 83 1006.7
20260505085603 61 103 0.0 1.0 0.00 0.00 0.00 82 1006.9
20260505085203 61 104 0.0 1.0 0.00 0.00 0.00 81 1007.0
20260505084803 62 103 0.0 1.0 0.00 0.00 0.00 81 1007.2
20260505084402 62 0 0.0 0.0 0.00 0.00 0.00 79 1007.1
20260505084002 62 0 0.0 0.0 0.00 0.00 0.00 79 1007.1
20260505083602 62 0 0.0 0.0 0.00 0.00 0.00 78 1007.0
20260505083202 62 104 0.0 2.0 0.00 0.00 0.00 78 1006.8
20260505082803 62 102 1.0 2.0 0.00 0.00 0.00 78 1006.7
20260505082402 62 100 1.0 2.0 0.00 0.00 0.00 79 1006.6
20260505082003 62 97 1.0 2.0 0.00 0.00 0.00 79 1006.6
20260505081602 62 101 1.0 2.0 0.00 0.00 0.00 79 1006.5
20260505081203 62 107 1.0 2.0 0.00 0.00 0.00 79 1006.4
20260505080402 62 113 0.0 1.0 0.00 0.00 0.00 79 1006.6
20260505080002 62 0 0.0 0.0 0.00 0.00 0.00 79 1006.5
20260505075602 61 0 0.0 0.0 0.00 0.00 0.00 80 1006.6
20260505075203 61 0 0.0 0.0 0.00 0.00 0.00 81 1006.7
20260505074802 61 0 0.0 0.0 0.00 0.00 0.00 80 1006.8
20260505074402 61 114 0.0 1.0 0.00 0.00 0.00 80 1006.8
20260505074003 62 114 0.0 1.0 0.00 0.00 0.00 79 1006.8
20260505073604 62 114 0.0 1.0 0.00 0.00 0.00 79 1006.8
20260505073202 62 116 0.0 2.0 0.00 0.00 0.00 79 1006.8
20260505072802 62 116 1.0 2.0 0.00 0.00 0.00 78 1006.7
20260505072002 62 117 1.0 2.0 0.00 0.00 0.00 78 1006.7
20260505071603 62 119 0.0 2.0 0.00 0.00 0.00 78 1006.8
20260505071202 62 0 0.0 0.0 0.00 0.00 0.00 78 1007.1
20260505070802 62 132 0.0 1.0 0.00 0.00 0.00 78 1007.1
20260505070402 62 132 0.0 1.0 0.00 0.00 0.00 78 1007.1
20260505065602 62 137 0.0 1.0 0.00 0.00 0.00 78 1007.3
20260505065202 62 153 0.0 3.0 0.00 0.00 0.00 78 1007.2
20260505064803 62 189 0.0 3.0 0.00 0.00 0.00 77 1007.2
20260505064003 62 174 1.0 3.0 0.00 0.00 0.00 78 1007.3
20260505063603 62 169 1.0 3.0 0.00 0.00 0.00 78 1007.4
20260505063202 62 142 1.0 2.0 0.00 0.00 0.00 78 1007.3
20260505062802 62 141 1.0 2.0 0.00 0.00 0.00 78 1007.2
20260505062402 62 138 1.0 2.0 0.00 0.00 0.00 78 1007.3
20260505062003 62 139 1.0 2.0 0.00 0.00 0.00 78 1007.3
20260505061603 62 138 1.0 2.0 0.00 0.00 0.00 78 1007.3
20260505061203 62 135 1.0 2.0 0.00 0.00 0.00 78 1007.4
20260505060802 62 132 1.0 2.0 0.00 0.00 0.00 78 1007.5
20260505060402 62 131 1.0 2.0 0.00 0.00 0.00 78 1007.3
20260505060004 62 135 1.0 2.0 0.00 0.00 0.00 77 1007.5
20260505055603 62 126 1.0 3.0 0.00 0.00 0.00 77 1007.7
20260505055202 62 125 1.0 3.0 0.00 0.00 0.00 77 1007.8
20260505054802 63 123 0.0 3.0 0.00 0.00 0.00 77 1007.9
20260505054402 63 138 0.0 2.0 0.00 0.00 0.00 77 1008.1
20260505054002 63 136 0.0 2.0 0.00 0.00 0.00 77 1007.9
20260505053603 63 136 1.0 2.0 0.00 0.00 0.00 76 1008.0
20260505053203 63 135 1.0 2.0 0.00 0.00 0.00 76 1008.0
20260505052803 63 135 1.0 2.0 0.00 0.00 0.00 76 1008.0
20260505052003 63 134 1.0 2.0 0.00 0.00 0.00 76 1008.0
20260505051602 63 135 1.0 2.0 0.00 0.00 0.00 75 1008.0
20260505051202 63 136 1.0 2.0 0.00 0.00 0.00 75 1008.0
20260505050802 63 138 1.0 2.0 0.00 0.00 0.00 75 1008.0
20260505050402 64 138 1.0 2.0 0.00 0.00 0.00 74 1008.1
20260505041202 65 163 0.0 3.0 0.00 0.00 0.00 72 1008.6
20260505040803 65 172 0.0 3.0 0.00 0.00 0.00 71 1008.7
20260505040402 65 164 0.0 3.0 0.00 0.00 0.00 71 1008.7
20260505040003 65 161 1.0 4.0 0.00 0.00 0.00 71 1008.8
20260505035603 65 173 1.0 7.0 0.00 0.00 0.00 70 1008.9
20260505035202 65 177 1.0 7.0 0.00 0.00 0.00 70 1008.9
20260505034803 65 182 1.0 6.0 0.00 0.00 0.00 71 1008.9
20260505034402 65 186 1.0 4.0 0.00 0.00 0.00 70 1008.9
20260505034003 65 189 1.0 4.0 0.00 0.00 0.00 70 1008.9
20260505033603 65 202 1.0 3.0 0.00 0.00 0.00 70 1009.0
20260505033203 66 194 1.0 3.0 0.00 0.00 0.00 70 1009.0
20260505032802 66 194 1.0 3.0 0.00 0.00 0.00 69 1008.9
20260505032403 66 189 1.0 3.0 0.00 0.00 0.00 69 1009.0
20260505032003 66 191 1.0 4.0 0.00 0.00 0.00 68 1008.9
20260505031603 66 190 1.0 6.0 0.00 0.00 0.00 68 1008.9
20260505031202 66 184 1.0 6.0 0.00 0.00 0.00 68 1008.9
20260505030403 67 190 2.0 7.0 0.00 0.00 0.00 67 1008.8
20260505030003 67 184 3.0 7.0 0.00 0.00 0.00 67 1008.8
20260505025602 67 187 3.0 7.0 0.00 0.00 0.00 67 1008.7
20260505024803 67 184 2.0 7.0 0.00 0.00 0.00 66 1008.5
20260505024402 67 172 1.0 7.0 0.00 0.00 0.00 65 1008.5
20260505024003 68 177 2.0 8.0 0.00 0.00 0.00 65 1008.4
20260505023603 68 169 2.0 8.0 0.00 0.00 0.00 65 1008.3
20260505023202 68 183 2.0 9.0 0.00 0.00 0.00 65 1008.1
20260505022403 68 183 2.0 8.0 0.00 0.00 0.00 65 1008.1
20260505022003 68 184 2.0 8.0 0.00 0.00 0.00 65 1008.0
20260505021603 68 183 2.0 8.0 0.00 0.00 0.00 64 1008.0
20260505021202 68 172 1.0 7.0 0.00 0.00 0.00 65 1008.0
20260505020803 68 170 1.0 7.0 0.00 0.00 0.00 65 1007.9
20260505013215 69 175 2.0 7.0 0.00 0.00 0.00 61 1007.5
20260505012803 70 170 1.0 7.0 0.00 0.00 0.00 61 1007.5
20260505012404 70 172 1.0 7.0 0.00 0.00 0.00 61 1007.3
20260505011602 70 131 1.0 4.0 0.00 0.00 0.00 60 1007.2
20260505011205 70 131 1.0 4.0 0.00 0.00 0.00 59 1007.1
20260505010402 71 165 1.0 7.0 0.00 0.00 0.00 58 1006.9
20260505010004 72 183 1.0 7.0 0.00 0.00 0.00 57 1007.0
20260505005603 72 184 2.0 7.0 0.00 0.00 0.00 56 1007.0
20260505005203 72 175 2.0 9.0 0.00 0.00 0.00 57 1007.0
20260505004803 73 176 3.0 10.0 0.00 0.00 0.00 56 1006.9
20260505004003 73 191 4.0 11.0 0.00 0.00 0.00 55 1006.9
20260505003603 74 187 4.0 10.0 0.00 0.00 0.00 54 1007.0
20260505003203 74 183 4.0 10.0 0.00 0.00 0.00 53 1007.0
20260505002802 75 185 4.0 10.0 0.00 0.00 0.00 52 1007.0
20260505002403 75 191 4.0 12.0 0.00 0.00 0.00 53 1007.0
20260505002003 75 191 3.0 12.0 0.00 0.00 0.00 52 1007.0
20260505001202 76 185 3.0 12.0 0.00 0.00 0.00 52 1007.0
20260505000803 76 187 4.0 12.0 0.00 0.00 0.00 50 1006.9
20260505000405 76 191 6.0 15.0 0.00 0.00 0.00 50 1006.9
20260505000004 76 193 6.0 15.0 0.00 0.00 0.00 50 1006.8
20260504235603 77 191 6.0 14.0 0.00 0.00 0.00 49 1006.8
20260504235202 77 191 4.0 14.0 0.00 0.00 0.00 50 1006.8
20260504234803 78 185 6.0 14.0 0.00 0.00 0.00 49 1006.8
20260504234403 78 177 4.0 14.0 0.00 0.00 0.00 48 1006.7
20260504234003 78 167 3.0 11.0 0.00 0.00 0.00 48 1006.6
20260504233203 79 170 3.0 10.0 0.00 0.00 0.00 48 1006.7
20260504232804 79 176 4.0 11.0 0.00 0.00 0.00 47 1006.8
20260504232403 79 176 4.0 12.0 0.00 0.00 0.00 48 1006.7
20260504232003 79 179 4.0 12.0 0.00 0.00 0.00 47 1006.9
20260504231602 79 179 4.0 12.0 0.00 0.00 0.00 48 1006.9
20260504231202 79 192 4.0 14.0 0.00 0.00 0.00 48 1006.9
20260504230803 79 196 4.0 14.0 0.00 0.00 0.00 47 1006.9
20260504230403 79 200 4.0 12.0 0.00 0.00 0.00 46 1007.1
20260504230003 79 205 4.0 11.0 0.00 0.00 0.00 47 1007.0
20260504225603 79 205 4.0 12.0 0.00 0.00 0.00 46 1007.1
20260504225203 79 205 4.0 12.0 0.00 0.00 0.00 46 1007.0
20260504224803 80 199 4.0 12.0 0.00 0.00 0.00 44 1006.9
20260504224404 80 198 4.0 10.0 0.00 0.00 0.00 44 1006.8
20260504224003 80 203 4.0 12.0 0.00 0.00 0.00 45 1007.0
20260504223203 80 205 4.0 14.0 0.00 0.00 0.00 43 1007.0
20260504222803 80 203 6.0 14.0 0.00 0.00 0.00 45 1007.1
20260504222403 80 205 7.0 18.0 0.00 0.00 0.00 44 1007.1
20260504222003 80 200 7.0 18.0 0.00 0.00 0.00 44 1007.1
20260504221603 80 208 7.0 16.0 0.00 0.00 0.00 44 1007.1
20260504220803 80 212 7.0 13.0 0.00 0.00 0.00 42 1007.0
20260504220403 80 205 7.0 14.0 0.00 0.00 0.00 44 1007.1
20260504220004 80 206 7.0 14.0 0.00 0.00 0.00 43 1007.1
20260504215202 80 207 6.0 12.0 0.00 0.00 0.00 44 1007.3
20260504214402 80 207 6.0 12.0 0.00 0.00 0.00 45 1007.3
20260504214003 80 204 7.0 15.0 0.00 0.00 0.00 46 1007.3
20260504213203 80 195 6.0 15.0 0.00 0.00 0.00 43 1007.5
20260504212803 80 183 7.0 15.0 0.00 0.00 0.00 45 1007.4
20260504212403 80 185 7.0 16.0 0.00 0.00 0.00 45 1007.4
20260504212004 80 192 6.0 16.0 0.00 0.00 0.00 45 1007.5
20260504211602 80 196 7.0 13.0 0.00 0.00 0.00 45 1007.5
20260504211202 80 199 8.0 14.0 0.00 0.00 0.00 47 1007.6
20260504210803 80 203 7.0 14.0 0.00 0.00 0.00 45 1007.6
20260504210402 80 206 7.0 14.0 0.00 0.00 0.00 46 1007.6
20260504205602 80 201 8.0 16.0 0.00 0.00 0.00 47 1007.7
20260504205203 80 197 8.0 16.0 0.00 0.00 0.00 48 1007.7
20260504204802 80 194 7.0 14.0 0.00 0.00 0.00 46 1007.7
20260504204402 80 190 6.0 14.0 0.00 0.00 0.00 47 1007.8
20260504204002 80 191 7.0 14.0 0.00 0.00 0.00 47 1007.9
20260504203202 80 207 6.0 14.0 0.00 0.00 0.00 48 1007.9
20260504202802 79 198 7.0 13.0 0.00 0.00 0.00 47 1008.1
20260504202402 79 195 8.0 19.0 0.00 0.00 0.00 47 1008.1
20260504202003 79 192 8.0 19.0 0.00 0.00 0.00 45 1008.2
20260504201602 80 192 7.0 19.0 0.00 0.00 0.00 44 1008.3
20260504200802 79 213 8.0 16.0 0.00 0.00 0.00 49 1008.3
20260504200403 80 207 9.0 21.0 0.00 0.00 0.00 45 1008.3
20260504200003 80 200 9.0 21.0 0.00 0.00 0.00 43 1008.3
20260504195603 80 197 7.0 18.0 0.00 0.00 0.00 45 1008.4
20260504195202 80 192 6.0 16.0 0.00 0.00 0.00 45 1008.4
20260504194803 80 192 4.0 14.0 0.00 0.00 0.00 44 1008.5
20260504194403 80 205 6.0 13.0 0.00 0.00 0.00 47 1008.4
20260504194003 80 216 8.0 19.0 0.00 0.00 0.00 47 1008.5
20260504193603 79 209 10.0 19.0 0.00 0.00 0.00 46 1008.5
20260504193202 80 214 9.0 19.0 0.00 0.00 0.00 43 1008.6
20260504192802 80 204 7.0 18.0 0.00 0.00 0.00 43 1008.5
20260504192003 80 176 6.0 15.0 0.00 0.00 0.00 44 1008.4
20260504191602 80 186 7.0 16.0 0.00 0.00 0.00 44 1008.6
20260504191203 80 192 8.0 18.0 0.00 0.00 0.00 45 1008.6
20260504190803 79 196 8.0 20.0 0.00 0.00 0.00 46 1008.6
20260504190402 79 201 8.0 20.0 0.00 0.00 0.00 45 1008.7
20260504190003 79 201 9.0 18.0 0.00 0.00 0.00 46 1008.7
20260504185602 79 200 9.0 18.0 0.00 0.00 0.00 45 1008.7
20260504184803 80 204 7.0 18.0 0.00 0.00 0.00 46 1008.8
20260504184403 79 205 7.0 18.0 0.00 0.00 0.00 49 1008.9
20260504183603 79 197 8.0 19.0 0.00 0.00 0.00 47 1008.8
20260504182802 79 195 7.0 13.0 0.00 0.00 0.00 46 1008.9
20260504181602 79 193 6.0 19.0 0.00 0.00 0.00 47 1009.0
20260504180803 78 204 10.0 20.0 0.00 0.00 0.00 48 1009.1
20260504180403 78 202 9.0 20.0 0.00 0.00 0.00 45 1009.0
20260504180003 78 189 7.0 18.0 0.00 0.00 0.00 47 1009.0
20260504175603 78 188 6.0 14.0 0.00 0.00 0.00 45 1009.1
20260504175202 78 202 7.0 19.0 0.00 0.00 0.00 50 1009.1
20260504174803 77 213 9.0 19.0 0.00 0.00 0.00 47 1009.1
20260504174003 77 206 8.0 19.0 0.00 0.00 0.00 47 1009.2
20260504173203 77 196 10.0 19.0 0.00 0.00 0.00 47 1009.4
20260504172803 77 200 9.0 19.0 0.00 0.00 0.00 49 1009.3
20260504172403 77 197 7.0 19.0 0.00 0.00 0.00 48 1009.4
20260504172003 77 192 6.0 13.0 0.00 0.00 0.00 47 1009.5
20260504171603 77 201 7.0 12.0 0.00 0.00 0.00 50 1009.4
20260504170802 76 212 8.0 15.0 0.00 0.00 0.00 50 1009.7
20260504170403 76 203 7.0 15.0 0.00 0.00 0.00 46 1009.7
20260504160403 74 211 8.0 18.0 0.00 0.00 0.00 50 1010.2
20260504150802 71 209 6.0 15.0 0.00 0.00 0.00 53 1010.8
20260504141203 65 187 3.0 8.0 0.00 0.00 0.00 67 1011.4
20260504140802 65 192 3.0 10.0 0.00 0.00 0.00 70 1011.4
20260504140402 64 189 3.0 10.0 0.00 0.00 0.00 70 1011.4
20260504130803 60 189 2.0 6.0 0.00 0.00 0.00 77 1011.5
20260504130403 59 188 1.0 6.0 0.00 0.00 0.00 77 1011.5